Regional Weather Roundup
Issued by NWS Cleveland, OH

Home | Current Version | Previous Version | Graphics & Text | Print | Product List | Glossary On
Versions: 1 2 3 4 5 6 7 8 9 10 11 12 13 14 15 16 17 18 19 20 21 22 23 24 25 26 27 28 29 30 31 32 33 34 35 36 37 38 39 40 41 42 43 44 45 46 47 48 49 50
000
ASUS41 KCLE 240200
RWRCLE
OHIO REGIONAL WEATHER ROUNDUP
NATIONAL WEATHER SERVICE WILMINGTON, OH
1000 PM EDT TUE SEP 23 2014

NOTE: "FAIR" INDICATES FEW OR NO CLOUDS BELOW 12,000 FEET WITH NO
SIGNIFICANT WEATHER AND/OR OBSTRUCTIONS TO VISIBILITY.

OHZ001>008-015>018-024>027-034-035-043-044-240300-
   NORTHWEST OHIO

CITY           SKY/WX    TMP DP  RH WIND       PRES   REMARKS
DEFIANCE       CLEAR    N/A N/A N/A CALM      30.33R
FINDLAY        CLEAR     59  49  69 E9        30.33R
TOLEDO EXPRESS CLEAR     54  50  86 CALM      30.34R
TOLEDO METCALF CLEAR     56  50  80 E5          N/A
LIMA           CLEAR     53  47  79 E5        30.33R
$$

OHZ009>014-019>023-028>033-038-089-240300-
   NORTHEAST OHIO

CITY           SKY/WX    TMP DP  RH WIND       PRES   REMARKS
CLE-HOPKINS    CLEAR     58  50  75 E7        30.38R
CLE-LAKEFRONT  CLEAR     59  50  72 E5        30.36R
CUY CO. ARPT   CLEAR     55  54  94 SE6       30.38R
LORAIN-ELYRIA  CLEAR     57  50  77 E5        30.37R
ASHTABULA      CLEAR     49  48  97 CALM      30.39R
AKRON-CANTON   CLEAR     57  45  64 E5        30.37R
WOOSTER        NOT AVBL
MANSFIELD      CLEAR     57  46  66 SE3       30.36R
YOUNGSTOWN     CLEAR     55  51  86 NE8       30.38R
$$

OHZ042-051>053-060>062-070>072-077>081-240300-
  SOUTHWEST OHIO

CITY           SKY/WX    TMP DP  RH WIND       PRES   REMARKS
CINC-COVINGTON CLEAR     61  44  53 CALM      30.30R
CINC-LUNKEN    CLEAR     53  50  89 NE5       30.31R
HAMILTON       CLEAR     50  48  93 CALM      30.32R
DAYTON         NOT AVBL
WRIGHT-PAT AFB CLEAR     58  44  57 VRB2      30.32R
DAYTON GENERAL CLEAR     60  44  55 E7        30.31R
WILMINGTON     CLEAR     57  41  55 NE7       30.32R
$$

OHZ036-037-039>041-045>050-054>059-063>069-073>076-082>088-240300-
  CENTRAL AND SOUTHEAST OHIO

CITY           SKY/WX    TMP DP  RH WIND       PRES   REMARKS
COLUMBUS       CLEAR     58  44  60 E6        30.33R
OSU AIRPORT    CLEAR     57  45  64 CALM      30.33R
BOLTON FIELD   NOT AVBL
RICKENBACK AFB NOT AVBL
NEWARK         CLEAR     48  45  89 CALM      30.34R
MARION         CLEAR     53  45  74 CALM      30.34R
LANCASTER      CLEAR     49  45  86 W3        30.34R
ZANESVILLE     CLEAR     54  45  71 CALM      30.34R
NEW PHILLY     CLEAR     51  48  89 CALM      30.36S
$$



USA.gov is the U.S. government's official web portal to all federal, state and local government web resources and services.